Dewpoint
-4 -4 -3 -3 1 7 8 9 9 12 13 13 13 13 13 14 14 14 14 13 11 12 14 13 13 13 13 11 11 10 9 8
-3 -3 -2 -2 -3 -1 4 7 5 9 11 11 13 14 13 13 13 14 13 13 14 14 14 13 13 13 12 12 11 11 8 8
-5 -4 -3 -3 -2 -2 -0 1 6 7 4 1 4 11 13 13 13 13 13 13 13 13 13 13 13 13 12 12 11 9 8 8
-6 -7 -6 -6 -4 -3 -3 -4 -2 -1 0 6 0 -1 2 10 11 12 12 12 13 13 12 12 12 13 12 11 11 10 9 8
-7 -6 -6 -5 -4 -3 -3 -3 -4 -5 -8 -4 -1 6 0 -2 -1 5 8 10 10 11 11 11 12 11 11 11 11 11 10 9
-6 -5 -5 -5 -5 -4 -5 -6 -3 -4 -5 -9 -7 -3 3 -1 -2 -2 -2 1 4 7 9 10 11 11 11 11 11 10 10 9
-5 -5 -5 -5 -4 -4 -7 -9 -10 -7 -6 -5 -9 -10 -4 -1 -2 -2 -1 0 1 3 3 5 7 9 9 10 10 10 10 9
-5 -5 -5 -5 -4 -4 -3 -2 -2 -2 -1 1 1 1 -0 -6 -4 1 4 -1 -1 -1 0 2 4 4 6 8 8 8 9 9
-5 -6 -5 -5 -4 -3 -2 -2 -1 -0 -0 0 2 2 2 3 -3 -4 -2 4 5 3 1 3 -1 2 4 6 7 8 8 8
-6 -6 -6 -4 -4 -3 -2 -1 -0 0 1 1 3 3 3 3 1 -2 -3 -2 0 1 2 1 1 5 5 5 4 4 6 7
-7 -6 -5 -4 -3 -2 -2 -0 -0 0 1 2 4 3 4 3 1 -2 -2 1 1 2 4 3 4 4 2 3 5 5 5 6
-6 -6 -6 -4 -3 -3 -1 -0 1 1 0 1 3 3 3 -3 -4 -2 -3 -4 -4 -0 0 3 5 5 3 4 6 6 5 6
-7 -6 -6 -5 -3 -3 -1 -0 0 -0 0 1 2 2 -3 -3 -4 -5 -4 -4 -4 -5 -4 -1 3 5 5 4 4 6 5 4
-7 -7 -5 -4 -4 -2 -2 -1 -1 -1 1 2 2 0 -2 -4 -4 -5 -5 -5 -5 -4 -3 -2 -0 2 5 5 5 5 6 5
-8 -8 -6 -5 -4 -3 -1 -1 -1 -0 1 2 1 -1 -3 -4 -4 -5 -6 -4 -4 -4 -3 -3 -2 -1 1 4 5 5 5 5
-7 -6 -6 -4 -3 -1 -1 -1 -1 1 1 1 1 -2 -2 -3 -5 -5 -5 -4 -3 -3 -2 -2 -3 -3 -2 0 2 4 5 4
-6 -6 -4 -2 -2 -1 -2 -2 -0 1 1 1 -0 -1 -2 -2 -3 -4 -4 -4 -4 -4 -4 -4 -3 -4 -4 -4 -2 2 4 4
-6 -6 -2 -2 -2 -2 -2 -2 -2 -1 -1 -0 -1 -1 -2 -2 -3 -3 -3 -3 -4 -4 -5 -5 -5 -6 -5 -4 -4 -3 -0 3
-5 -3 -2 -2 -2 -3 -2 -2 -2 -3 -2 -1 -1 -2 -2 -2 -3 -3 -3 -3 -3 -4 -5 -5 -5 -6 -5 -4 -3 -2 -2 0
Wind_Speed
13 15 17 17 17 17 18 17 12 9 15 20 23 27 29 35 37 40 41 39 39 39 37 40 43 42 44 39 41 34 42 45
13 16 17 17 17 18 19 20 20 12 9 14 16 25 28 27 32 37 38 38 38 39 40 40 42 43 36 38 40 42 38 42
11 13 15 16 17 16 18 18 18 17 16 14 15 13 17 22 29 33 35 33 36 36 39 41 43 38 36 38 43 40 44 42
12 15 16 16 18 19 19 18 18 18 16 14 13 13 12 12 9 13 15 23 29 32 35 40 43 42 39 35 43 46 44 46
12 14 16 17 18 18 19 19 19 18 20 19 15 13 14 14 11 13 14 10 13 21 26 31 41 38 38 39 46 43 46 47
13 15 15 16 18 20 21 22 20 21 21 22 22 18 16 15 12 11 12 16 21 10 14 25 35 42 47 43 39 46 40 42
12 15 18 21 21 20 23 23 24 23 24 23 20 23 22 18 18 18 18 17 16 21 25 20 21 24 33 43 34 39 44 41
16 19 21 21 21 22 22 22 24 24 23 24 21 20 21 25 23 21 18 21 23 24 27 26 28 21 22 44 27 42 43 38
19 22 22 22 22 23 24 24 26 25 25 24 23 23 19 18 21 21 21 18 20 22 25 28 29 23 26 22 27 45 41 44
24 22 20 21 22 24 25 26 29 30 30 27 24 22 20 19 20 20 20 20 23 25 25 27 32 28 30 32 31 35 31 41
21 21 22 24 25 27 28 27 29 32 31 26 22 18 16 15 17 19 19 17 19 20 20 25 27 27 30 34 33 36 31 33
20 23 24 24 26 28 29 30 30 34 32 25 20 15 12 15 15 15 15 18 19 20 20 24 24 26 29 31 34 35 31 35
22 22 23 25 26 30 29 32 33 41 30 22 18 9 9 9 11 11 13 16 17 18 22 24 25 23 24 29 32 36 39 37
22 23 25 26 28 30 34 33 38 40 27 19 5 5 8 9 11 12 14 16 16 17 19 23 25 26 28 26 28 32 36 39
23 26 27 28 31 33 34 38 43 29 18 7 6 7 7 9 13 15 16 15 15 15 17 19 22 25 27 31 27 30 35 37
24 27 30 29 31 31 37 44 32 9 6 5 1 4 10 12 13 15 16 16 15 14 14 14 14 16 20 25 31 35 29 37
26 28 29 27 29 30 39 36 22 3 5 3 2 5 10 14 16 17 17 16 15 14 14 14 15 17 19 22 27 36 37 31
28 26 24 24 27 27 30 30 16 7 5 8 9 11 14 16 19 22 21 21 21 20 19 19 18 18 20 23 25 28 40 41
26 23 20 21 22 25 22 23 22 18 12 11 11 13 15 16 19 23 25 25 26 25 23 22 23 22 22 23 25 27 30 42
Wind_Direction
31 29 27 24 20 21 19 11 342 288 263 271 277 278 274 262 256 248 244 252 247 247 244 241 245 245 238 231 239 238 228 219
39 35 30 28 28 25 22 17 23 358 311 295 280 270 270 273 263 259 249 249 248 244 244 243 245 247 251 240 240 231 205 216
46 38 32 28 23 24 21 20 14 11 15 19 360 315 264 245 237 247 254 245 243 246 243 247 243 246 241 231 228 212 207 214
32 26 22 18 13 9 5 359 354 354 355 348 352 355 331 295 248 221 212 236 239 243 245 243 242 239 234 233 223 221 220 208
26 17 9 5 1 356 352 352 350 341 335 332 329 329 329 332 334 302 297 237 237 242 250 250 237 238 235 226 224 224 221 216
8 3 357 353 350 348 343 337 333 330 330 322 314 306 301 298 299 303 316 305 285 252 272 262 247 243 241 219 222 224 227 225
355 352 346 340 339 336 330 326 320 313 307 303 298 290 287 281 282 279 273 284 288 280 282 265 276 254 246 239 226 226 227 226
341 338 336 334 329 326 324 322 319 316 310 302 298 287 277 276 280 282 285 274 262 267 264 276 267 263 280 257 255 243 223 224
335 332 328 326 324 325 320 313 310 309 305 297 293 288 274 273 272 272 275 271 266 265 259 258 254 255 259 271 274 243 230 235
329 328 324 319 317 317 316 312 311 312 309 298 295 287 273 271 269 264 268 271 274 266 262 257 256 253 247 248 246 249 240 229
325 322 319 317 317 317 315 313 310 313 307 294 287 272 271 275 279 274 267 271 266 263 259 256 249 249 249 247 246 248 242 227
319 317 318 319 318 318 311 316 308 314 309 293 277 266 265 271 270 269 271 270 268 268 262 252 253 248 243 246 243 242 243 235
318 318 318 318 318 321 318 315 308 320 303 290 263 252 264 278 282 283 280 275 274 272 265 260 251 251 251 246 242 239 239 241
317 319 319 321 323 323 319 313 313 316 291 294 225 271 282 300 313 315 308 298 288 280 270 258 250 245 240 241 245 241 236 243
321 324 324 323 324 323 321 316 321 305 302 240 205 291 312 339 336 331 319 310 298 288 282 270 260 253 248 239 239 245 244 243
323 323 323 322 324 325 325 331 318 280 293 191 234 331 359 339 330 330 328 323 314 314 304 295 286 269 260 252 244 240 240 246
319 323 325 323 326 329 336 338 347 317 217 118 49 19 2 351 347 345 341 330 321 312 304 302 299 302 287 274 256 247 243 244
314 320 320 322 326 329 336 354 357 24 80 77 38 11 357 349 344 343 339 341 336 330 329 328 319 306 295 286 283 268 249 243
313 317 318 323 326 330 338 348 1 4 0 15 8 350 337 336 337 338 337 338 341 336 331 328 322 318 306 292 288 277 265 245
Height
1487 1485 1482 1479 1476 1473 1470 1466 1463 1463 1463 1464 1464 1464 1463 1464 1463 1465 1469 1472 1473 1475 1478 1476 1479 1482 1486 1490 1492 1495 1500 1506
1488 1485 1483 1481 1476 1473 1470 1468 1464 1463 1461 1460 1459 1459 1457 1457 1458 1458 1460 1464 1466 1468 1469 1468 1471 1475 1478 1483 1486 1489 1493 1499
1488 1486 1484 1482 1479 1476 1473 1470 1469 1466 1463 1459 1457 1455 1454 1451 1448 1450 1449 1453 1457 1459 1461 1461 1462 1466 1470 1474 1476 1480 1483 1488
1488 1487 1485 1483 1481 1479 1476 1472 1469 1467 1465 1463 1458 1454 1453 1449 1445 1446 1445 1447 1448 1451 1451 1454 1455 1457 1459 1462 1463 1467 1472 1479
1489 1487 1485 1483 1480 1479 1477 1474 1471 1468 1465 1462 1458 1455 1453 1448 1445 1442 1444 1445 1443 1440 1443 1445 1445 1447 1449 1448 1452 1453 1460 1468
1489 1487 1486 1483 1481 1478 1474 1472 1470 1467 1463 1461 1458 1455 1453 1449 1445 1440 1436 1443 1444 1434 1442 1442 1434 1439 1438 1426 1439 1443 1445 1458
1490 1488 1486 1483 1478 1474 1470 1466 1464 1463 1458 1455 1452 1450 1448 1445 1442 1440 1440 1435 1432 1439 1439 1434 1438 1425 1435 1426 1433 1434 1434 1444
1486 1483 1481 1477 1475 1471 1467 1464 1460 1458 1456 1451 1448 1445 1442 1439 1437 1437 1435 1431 1431 1430 1434 1432 1436 1428 1430 1433 1426 1426 1428 1432
1484 1481 1479 1476 1472 1467 1463 1458 1454 1450 1446 1443 1439 1438 1436 1433 1430 1428 1427 1429 1427 1426 1427 1426 1423 1421 1427 1427 1430 1427 1418 1424
1482 1479 1476 1472 1468 1463 1459 1455 1451 1447 1442 1435 1433 1431 1429 1426 1423 1422 1421 1420 1420 1419 1418 1419 1420 1416 1415 1419 1425 1428 1422 1421
1479 1476 1472 1469 1465 1461 1457 1452 1447 1442 1437 1432 1428 1425 1422 1421 1420 1418 1414 1414 1413 1414 1410 1411 1412 1411 1409 1412 1415 1420 1416 1418
1477 1474 1470 1466 1461 1456 1450 1447 1442 1434 1429 1424 1421 1418 1416 1414 1414 1412 1408 1408 1407 1407 1403 1403 1404 1402 1402 1406 1408 1410 1412 1416
1476 1471 1466 1461 1457 1452 1445 1439 1433 1427 1420 1417 1413 1414 1412 1411 1410 1404 1404 1404 1402 1397 1396 1398 1395 1397 1396 1399 1400 1403 1405 1410
1472 1468 1463 1457 1451 1447 1441 1435 1426 1417 1413 1409 1407 1410 1409 1406 1403 1401 1399 1397 1395 1393 1391 1391 1387 1387 1388 1392 1393 1396 1398 1403
1471 1467 1462 1456 1450 1442 1436 1427 1417 1410 1406 1406 1406 1406 1405 1402 1400 1398 1396 1393 1391 1389 1386 1384 1382 1381 1383 1385 1387 1390 1391 1393
1469 1466 1461 1454 1448 1440 1430 1418 1409 1406 1404 1403 1403 1405 1402 1400 1399 1397 1393 1390 1387 1382 1383 1381 1376 1374 1376 1377 1378 1379 1380 1383
1464 1459 1456 1453 1446 1437 1426 1417 1406 1404 1403 1402 1402 1403 1401 1399 1396 1393 1390 1387 1384 1382 1379 1374 1371 1365 1367 1369 1370 1370 1371 1371
1458 1454 1452 1449 1443 1436 1428 1419 1410 1406 1404 1402 1403 1402 1400 1397 1394 1391 1387 1383 1379 1373 1368 1363 1362 1362 1360 1359 1358 1358 1359 1361
1453 1450 1447 1445 1440 1434 1427 1419 1413 1409 1405 1404 1402 1400 1398 1395 1391 1387 1382 1377 1372 1367 1363 1360 1357 1356 1354 1353 1352 1350 1350 1351